Year,Month,Day,Hour,Minute,Value (Times are PST for temperature in C)
2014,07,14,00,00,21.90
2014,07,14,00,01,22.00
2014,07,14,00,02,22.00
2014,07,14,00,03,22.10
2014,07,14,00,04,22.10
2014,07,14,00,05,22.20
2014,07,14,00,06,22.20
2014,07,14,00,07,22.30
2014,07,14,00,08,22.30
2014,07,14,00,09,22.30
2014,07,14,00,10,22.40
2014,07,14,00,11,22.40
2014,07,14,00,12,22.50
2014,07,14,00,13,22.50
2014,07,14,00,14,22.60
2014,07,14,00,15,22.60
2014,07,14,00,16,22.70
2014,07,14,00,17,22.70
2014,07,14,00,18,22.70
2014,07,14,00,19,22.80
2014,07,14,00,20,22.80
2014,07,14,00,21,22.80
2014,07,14,00,22,22.80
2014,07,14,00,23,22.90
2014,07,14,00,24,22.90
2014,07,14,00,25,22.90
2014,07,14,00,26,23.00
2014,07,14,00,27,23.00
2014,07,14,00,28,23.10
2014,07,14,00,29,23.20
2014,07,14,00,30,23.20
2014,07,14,00,31,23.30
2014,07,14,00,32,23.30
2014,07,14,00,33,23.30
2014,07,14,00,34,23.40
2014,07,14,00,35,23.40
2014,07,14,00,36,23.40
2014,07,14,00,37,23.50
2014,07,14,00,38,23.50
2014,07,14,00,39,23.60
2014,07,14,00,40,23.60
2014,07,14,00,41,23.60
2014,07,14,00,42,23.70
2014,07,14,00,43,23.70
2014,07,14,00,44,23.70
2014,07,14,00,45,23.70
2014,07,14,00,46,23.70
2014,07,14,00,47,23.80
2014,07,14,00,48,23.80
2014,07,14,00,49,23.80
2014,07,14,00,50,23.80
2014,07,14,00,51,23.80
2014,07,14,00,52,23.90
2014,07,14,00,53,23.90
2014,07,14,00,54,23.90
2014,07,14,00,55,23.90
2014,07,14,00,56,24.00
2014,07,14,00,57,24.00
2014,07,14,00,58,24.00
2014,07,14,00,59,24.00
2014,07,14,01,00,24.00
2014,07,14,01,01,24.10
2014,07,14,01,02,24.10
2014,07,14,01,03,24.10
2014,07,14,01,04,24.10
2014,07,14,01,05,24.10
2014,07,14,01,06,24.10
2014,07,14,01,07,24.10
2014,07,14,01,08,24.20
2014,07,14,01,09,24.20
2014,07,14,01,10,24.20
2014,07,14,01,11,24.20
2014,07,14,01,12,24.20
2014,07,14,01,13,24.20
2014,07,14,01,14,24.30
2014,07,14,01,15,24.30
2014,07,14,01,16,24.30
2014,07,14,01,17,24.30
2014,07,14,01,18,24.30
2014,07,14,01,19,24.30
2014,07,14,01,20,24.40
2014,07,14,01,21,24.40
2014,07,14,01,22,24.40
2014,07,14,01,23,24.50
2014,07,14,01,24,24.50
2014,07,14,01,25,24.60
2014,07,14,01,26,24.60
2014,07,14,01,27,24.60
2014,07,14,01,28,24.70
2014,07,14,01,29,24.70
2014,07,14,01,30,24.70
2014,07,14,01,31,24.80
2014,07,14,01,32,24.80
2014,07,14,01,33,24.80
2014,07,14,01,34,24.80
2014,07,14,01,35,24.80
2014,07,14,01,36,24.80
2014,07,14,01,37,24.90
2014,07,14,01,38,24.90
2014,07,14,01,39,24.90
2014,07,14,01,40,24.90
2014,07,14,01,41,25.00
2014,07,14,01,42,25.00
2014,07,14,01,43,25.10
2014,07,14,01,44,25.10
2014,07,14,01,45,25.10
2014,07,14,01,46,25.10
2014,07,14,01,47,25.20
2014,07,14,01,48,25.20
2014,07,14,01,49,25.20
2014,07,14,01,50,25.30
2014,07,14,01,51,25.30
2014,07,14,01,52,25.30
2014,07,14,01,53,25.40
2014,07,14,01,54,25.40
2014,07,14,01,55,25.50
2014,07,14,01,56,25.50
2014,07,14,01,57,25.60
2014,07,14,01,58,25.60
2014,07,14,01,59,25.60
2014,07,14,02,00,25.60
2014,07,14,02,01,25.60
2014,07,14,02,02,25.70
2014,07,14,02,03,25.70
2014,07,14,02,04,25.70
2014,07,14,02,05,25.70
2014,07,14,02,06,25.70
2014,07,14,02,07,25.70
2014,07,14,02,08,25.70
2014,07,14,02,09,25.60
2014,07,14,02,10,25.70
2014,07,14,02,11,25.70
2014,07,14,02,12,25.70
2014,07,14,02,13,25.70
2014,07,14,02,14,25.70
2014,07,14,02,15,25.70
2014,07,14,02,16,25.70
2014,07,14,02,17,25.60
2014,07,14,02,18,25.60
2014,07,14,02,19,25.60
2014,07,14,02,20,25.60
2014,07,14,02,21,25.60
2014,07,14,02,22,25.60
2014,07,14,02,23,25.60
2014,07,14,02,24,25.60
2014,07,14,02,25,25.60
2014,07,14,02,26,25.60
2014,07,14,02,27,25.50
2014,07,14,02,28,25.50
2014,07,14,02,29,25.50
2014,07,14,02,30,25.50
2014,07,14,02,31,25.40
2014,07,14,02,32,25.40
2014,07,14,02,33,25.40
2014,07,14,02,34,25.30
2014,07,14,02,35,25.30
2014,07,14,02,36,25.30
2014,07,14,02,37,25.30
2014,07,14,02,38,25.30
2014,07,14,02,39,25.30
2014,07,14,02,40,25.30
2014,07,14,02,41,25.20
2014,07,14,02,42,25.20
2014,07,14,02,43,25.20
2014,07,14,02,44,25.20
2014,07,14,02,45,25.20
2014,07,14,02,46,25.10
2014,07,14,02,47,25.10
2014,07,14,02,48,25.00
2014,07,14,02,49,24.80
2014,07,14,02,50,24.60
2014,07,14,02,51,24.40
2014,07,14,02,52,24.20
2014,07,14,02,53,24.10
2014,07,14,02,54,23.90
2014,07,14,02,55,23.80
2014,07,14,02,56,23.60
2014,07,14,02,57,23.50
2014,07,14,02,58,23.30
2014,07,14,02,59,23.20
2014,07,14,03,00,23.00
2014,07,14,03,01,22.80
2014,07,14,03,02,22.60
2014,07,14,03,03,22.40
2014,07,14,03,04,22.20
2014,07,14,03,05,22.00
2014,07,14,03,06,21.90
2014,07,14,03,07,21.80
2014,07,14,03,08,21.70
2014,07,14,03,09,21.50
2014,07,14,03,10,21.40
2014,07,14,03,11,21.30
2014,07,14,03,12,21.30
2014,07,14,03,13,21.20
2014,07,14,03,14,21.10
2014,07,14,03,15,21.10
2014,07,14,03,16,21.00
2014,07,14,03,17,21.00
2014,07,14,03,18,20.90
2014,07,14,03,19,20.90
2014,07,14,03,20,20.90
2014,07,14,03,21,20.90
2014,07,14,03,22,20.80
2014,07,14,03,23,20.80
2014,07,14,03,24,20.80
2014,07,14,03,25,20.80
2014,07,14,03,26,20.90
2014,07,14,03,27,20.90
2014,07,14,03,28,20.90
2014,07,14,03,29,20.90
2014,07,14,03,30,20.80
2014,07,14,03,31,20.80
2014,07,14,03,32,20.70
2014,07,14,03,33,20.60
2014,07,14,03,34,20.50
2014,07,14,03,35,20.40
2014,07,14,03,36,20.30
2014,07,14,03,37,20.20
2014,07,14,03,38,20.10
2014,07,14,03,39,20.00
2014,07,14,03,40,19.90
2014,07,14,03,41,19.80
2014,07,14,03,42,19.80
2014,07,14,03,43,19.70
2014,07,14,03,44,19.60
2014,07,14,03,45,19.50
2014,07,14,03,46,19.40
2014,07,14,03,47,19.30
2014,07,14,03,48,19.30
2014,07,14,03,49,19.20
2014,07,14,03,50,19.20
2014,07,14,03,51,19.20
2014,07,14,03,52,19.10
2014,07,14,03,53,19.10
2014,07,14,03,54,19.10
2014,07,14,03,55,19.00
2014,07,14,03,56,19.00
2014,07,14,03,57,18.90
2014,07,14,03,58,18.90
2014,07,14,03,59,18.80
2014,07,14,04,00,18.80
2014,07,14,04,01,18.70
2014,07,14,04,02,18.60
2014,07,14,04,03,18.50
2014,07,14,04,04,18.50
2014,07,14,04,05,18.40
2014,07,14,04,06,18.40
2014,07,14,04,07,18.30
2014,07,14,04,08,18.30
2014,07,14,04,09,18.20
2014,07,14,04,10,18.20
2014,07,14,04,11,18.10
2014,07,14,04,12,18.10
2014,07,14,04,13,18.10
2014,07,14,04,14,18.10
2014,07,14,04,15,18.00
2014,07,14,04,16,18.00
2014,07,14,04,17,17.90
2014,07,14,04,18,17.90
2014,07,14,04,19,17.90
2014,07,14,04,20,17.90
2014,07,14,04,21,17.90
2014,07,14,04,22,17.80
2014,07,14,04,23,17.80
2014,07,14,04,24,17.80
2014,07,14,04,25,17.80
2014,07,14,04,26,17.80
2014,07,14,04,27,17.80
2014,07,14,04,28,17.70
2014,07,14,04,29,17.70
2014,07,14,04,30,17.70
2014,07,14,04,31,17.70
2014,07,14,04,32,17.70
2014,07,14,04,33,17.60
2014,07,14,04,34,17.60
2014,07,14,04,35,17.60
2014,07,14,04,36,17.60
2014,07,14,04,37,17.60
2014,07,14,04,38,17.50
2014,07,14,04,39,17.50
2014,07,14,04,40,17.40
2014,07,14,04,41,17.30
2014,07,14,04,42,17.20
2014,07,14,04,43,17.10
2014,07,14,04,44,17.00
2014,07,14,04,45,16.90
2014,07,14,04,46,16.80
2014,07,14,04,47,16.70
2014,07,14,04,48,16.50
2014,07,14,04,49,16.50
2014,07,14,04,50,16.40
2014,07,14,04,51,16.30
2014,07,14,04,52,16.30
2014,07,14,04,53,16.20
2014,07,14,04,54,16.20
2014,07,14,04,55,16.10
2014,07,14,04,56,16.00
2014,07,14,04,57,16.00
2014,07,14,04,58,15.90
2014,07,14,04,59,15.90
2014,07,14,05,00,15.90
2014,07,14,05,01,15.80
2014,07,14,05,02,15.80
2014,07,14,05,03,15.80
2014,07,14,05,04,15.80
2014,07,14,05,05,15.70
2014,07,14,05,06,15.70
2014,07,14,05,07,15.70
2014,07,14,05,08,15.70
2014,07,14,05,09,15.70
2014,07,14,05,10,15.70
2014,07,14,05,11,15.70
2014,07,14,05,12,15.60
2014,07,14,05,13,15.60
2014,07,14,05,14,15.60
2014,07,14,05,15,15.60
2014,07,14,05,16,15.60
2014,07,14,05,17,15.60
2014,07,14,05,18,15.60
2014,07,14,05,19,15.60
2014,07,14,05,20,15.60
2014,07,14,05,21,15.60
2014,07,14,05,22,15.60
2014,07,14,05,23,15.60
2014,07,14,05,24,15.60
2014,07,14,05,25,15.70
2014,07,14,05,26,15.70
2014,07,14,05,27,15.70
2014,07,14,05,28,15.70
2014,07,14,05,29,15.70
2014,07,14,05,30,15.70
2014,07,14,05,31,15.70
2014,07,14,05,32,15.70
2014,07,14,05,33,15.70
2014,07,14,05,34,15.70
2014,07,14,05,35,15.80
2014,07,14,05,36,15.80
2014,07,14,05,37,15.80
2014,07,14,05,38,15.80
2014,07,14,05,39,15.80
2014,07,14,05,40,15.90
2014,07,14,05,41,15.90
2014,07,14,05,42,15.90
2014,07,14,05,43,15.90
2014,07,14,05,44,15.90
2014,07,14,05,45,16.00
2014,07,14,05,46,16.00
2014,07,14,05,47,16.00
2014,07,14,05,48,16.00
2014,07,14,05,49,16.10
2014,07,14,05,50,16.10
2014,07,14,05,51,16.10
2014,07,14,05,52,16.10
2014,07,14,05,53,16.20
2014,07,14,05,54,16.20
2014,07,14,05,55,16.20
2014,07,14,05,56,16.20
2014,07,14,05,57,16.20
2014,07,14,05,58,16.20
2014,07,14,05,59,16.20
2014,07,14,06,00,16.20
2014,07,14,06,01,16.30
2014,07,14,06,02,16.30
2014,07,14,06,03,16.30
2014,07,14,06,04,16.30
2014,07,14,06,05,16.30
2014,07,14,06,06,16.30
2014,07,14,06,07,16.30
2014,07,14,06,08,16.30
2014,07,14,06,09,16.30
2014,07,14,06,10,16.30
2014,07,14,06,11,16.30
2014,07,14,06,12,16.30
2014,07,14,06,13,16.30
2014,07,14,06,14,16.30
2014,07,14,06,15,16.30
2014,07,14,06,16,16.30
2014,07,14,06,17,16.30
2014,07,14,06,18,16.30
2014,07,14,06,19,16.30
2014,07,14,06,20,16.30
2014,07,14,06,21,16.30
2014,07,14,06,22,16.30
2014,07,14,06,23,16.40
2014,07,14,06,24,16.40
2014,07,14,06,25,16.40
2014,07,14,06,26,16.40
2014,07,14,06,27,16.40
2014,07,14,06,28,16.40
2014,07,14,06,29,16.40
2014,07,14,06,30,16.40
2014,07,14,06,31,16.40
2014,07,14,06,32,16.40
2014,07,14,06,33,16.50
2014,07,14,06,34,16.50
2014,07,14,06,35,16.50
2014,07,14,06,36,16.50
2014,07,14,06,37,16.50
2014,07,14,06,38,16.60
2014,07,14,06,39,16.60
2014,07,14,06,40,16.60
2014,07,14,06,41,16.60
2014,07,14,06,42,16.60
2014,07,14,06,43,16.60
2014,07,14,06,44,16.70
2014,07,14,06,45,16.70
2014,07,14,06,46,16.70
2014,07,14,06,47,16.70
2014,07,14,06,48,16.70
2014,07,14,06,49,16.80
2014,07,14,06,50,16.80
2014,07,14,06,51,16.80
2014,07,14,06,52,16.80
2014,07,14,06,53,16.80
2014,07,14,06,54,16.90
2014,07,14,06,55,17.00
2014,07,14,06,56,17.00
2014,07,14,06,57,17.10
2014,07,14,06,58,17.20
2014,07,14,06,59,17.20
2014,07,14,07,00,17.30
2014,07,14,07,01,17.30
2014,07,14,07,02,17.40
2014,07,14,07,03,17.40
2014,07,14,07,04,17.40
2014,07,14,07,05,17.40
2014,07,14,07,06,17.50
2014,07,14,07,07,17.50
2014,07,14,07,08,17.60
2014,07,14,07,09,17.60
2014,07,14,07,10,17.60
2014,07,14,07,11,17.60
2014,07,14,07,12,17.70
2014,07,14,07,13,17.70
2014,07,14,07,14,17.80
2014,07,14,07,15,17.80
2014,07,14,07,16,18.00
2014,07,14,07,17,18.10
2014,07,14,07,18,18.20
2014,07,14,07,19,18.20
2014,07,14,07,20,18.30
2014,07,14,07,21,18.30
2014,07,14,07,22,18.40
2014,07,14,07,23,18.50
2014,07,14,07,24,18.50
2014,07,14,07,25,18.50
2014,07,14,07,26,18.50
2014,07,14,07,27,18.50
2014,07,14,07,28,18.50
2014,07,14,07,29,18.50
2014,07,14,07,30,18.40
2014,07,14,07,31,18.40
2014,07,14,07,32,18.40
2014,07,14,07,33,18.40
2014,07,14,07,34,18.40
2014,07,14,07,35,18.40
2014,07,14,07,36,18.40
2014,07,14,07,37,18.40
2014,07,14,07,38,18.50
2014,07,14,07,39,18.50
2014,07,14,07,40,18.60
2014,07,14,07,41,18.60
2014,07,14,07,42,18.70
2014,07,14,07,43,18.80
2014,07,14,07,44,18.90
2014,07,14,07,45,19.00
2014,07,14,07,46,19.00
2014,07,14,07,47,19.10
2014,07,14,07,48,19.20
2014,07,14,07,49,19.30
2014,07,14,07,50,19.40
2014,07,14,07,51,19.50
2014,07,14,07,52,19.50
2014,07,14,07,53,19.60
2014,07,14,07,54,19.70
2014,07,14,07,55,19.70
2014,07,14,07,56,19.80
2014,07,14,07,57,19.80
2014,07,14,07,58,19.90
2014,07,14,07,59,20.00
2014,07,14,08,00,20.00
2014,07,14,08,01,20.10
2014,07,14,08,02,20.20
2014,07,14,08,03,20.30
2014,07,14,08,04,20.50
2014,07,14,08,05,20.60
2014,07,14,08,06,20.70
2014,07,14,08,07,20.80
2014,07,14,08,08,21.00
2014,07,14,08,09,21.00
2014,07,14,08,10,21.10
2014,07,14,08,11,21.20
2014,07,14,08,12,21.30
2014,07,14,08,13,21.40
2014,07,14,08,14,21.40
2014,07,14,08,15,21.50
2014,07,14,08,16,21.50
2014,07,14,08,17,21.60
2014,07,14,08,18,21.60
2014,07,14,08,19,21.70
2014,07,14,08,20,21.70
2014,07,14,08,21,21.70
2014,07,14,08,22,21.60
2014,07,14,08,23,21.60
2014,07,14,08,24,21.60
2014,07,14,08,25,21.60
2014,07,14,08,26,21.60
2014,07,14,08,27,21.60
2014,07,14,08,28,21.60
2014,07,14,08,29,21.60
2014,07,14,08,30,21.60
2014,07,14,08,31,21.60
2014,07,14,08,32,21.60
2014,07,14,08,33,21.60
2014,07,14,08,34,21.70
2014,07,14,08,35,21.70
2014,07,14,08,36,21.70
2014,07,14,08,37,21.70
2014,07,14,08,38,21.60
2014,07,14,08,39,21.50
2014,07,14,08,40,21.40
2014,07,14,08,41,21.30
2014,07,14,08,42,21.10
2014,07,14,08,43,21.00
2014,07,14,08,44,20.80
2014,07,14,08,45,20.70
2014,07,14,08,46,20.50
2014,07,14,08,47,20.40
2014,07,14,08,48,20.30
2014,07,14,08,49,20.20
2014,07,14,08,50,20.10
2014,07,14,08,51,20.10
2014,07,14,08,52,20.00
2014,07,14,08,53,20.00
2014,07,14,08,54,19.90
2014,07,14,08,55,19.90
2014,07,14,08,56,19.80
2014,07,14,08,57,19.80
2014,07,14,08,58,19.70
2014,07,14,08,59,19.70
2014,07,14,09,00,19.70
2014,07,14,09,01,19.70
2014,07,14,09,02,19.70
2014,07,14,09,03,19.70
2014,07,14,09,04,19.70
2014,07,14,09,05,19.70
2014,07,14,09,06,19.80
2014,07,14,09,07,19.80
2014,07,14,09,08,19.80
2014,07,14,09,09,19.90
2014,07,14,09,10,19.90
2014,07,14,09,11,19.90
2014,07,14,09,12,20.00
2014,07,14,09,13,20.00
2014,07,14,09,14,20.10
2014,07,14,09,15,20.00
2014,07,14,09,16,20.00
2014,07,14,09,17,19.90
2014,07,14,09,18,19.90
2014,07,14,09,19,19.90
2014,07,14,09,20,19.90
2014,07,14,09,21,19.80
2014,07,14,09,22,19.80
2014,07,14,09,23,19.80
2014,07,14,09,24,19.80
2014,07,14,09,25,19.80
2014,07,14,09,26,19.80
2014,07,14,09,27,19.80
2014,07,14,09,28,19.80
2014,07,14,09,29,19.80
2014,07,14,09,30,19.80
2014,07,14,09,31,19.80
2014,07,14,09,32,19.70
2014,07,14,09,33,19.60
2014,07,14,09,34,19.40
2014,07,14,09,35,19.30
2014,07,14,09,36,19.20
2014,07,14,09,37,19.20
2014,07,14,09,38,19.10
2014,07,14,09,39,19.00
2014,07,14,09,40,19.00
2014,07,14,09,41,19.10
2014,07,14,09,42,19.10
2014,07,14,09,43,19.20
2014,07,14,09,44,19.20
2014,07,14,09,45,19.30
2014,07,14,09,46,19.40
2014,07,14,09,47,19.40
2014,07,14,09,48,19.50
2014,07,14,09,49,19.50
2014,07,14,09,50,19.60
2014,07,14,09,51,19.70
2014,07,14,09,52,19.80
2014,07,14,09,53,19.80
2014,07,14,09,54,19.90
2014,07,14,09,55,20.00
2014,07,14,09,56,20.00
2014,07,14,09,57,20.10
2014,07,14,09,58,20.10
2014,07,14,09,59,20.20
2014,07,14,10,00,20.20
2014,07,14,10,01,20.30
2014,07,14,10,02,20.30
2014,07,14,10,03,20.40
2014,07,14,10,04,20.50
2014,07,14,10,05,20.60
2014,07,14,10,06,20.70
2014,07,14,10,07,20.80
2014,07,14,10,08,20.90
2014,07,14,10,09,21.10
2014,07,14,10,10,21.20
2014,07,14,10,11,21.30
2014,07,14,10,12,21.30
2014,07,14,10,13,21.40
2014,07,14,10,14,21.50
2014,07,14,10,15,21.60
2014,07,14,10,16,21.70
2014,07,14,10,17,21.80
2014,07,14,10,18,21.90
2014,07,14,10,19,22.00
2014,07,14,10,20,22.10
2014,07,14,10,21,22.20
2014,07,14,10,22,22.20
2014,07,14,10,23,22.30
2014,07,14,10,24,22.40
2014,07,14,10,25,22.50
2014,07,14,10,26,22.60
2014,07,14,10,27,22.70
2014,07,14,10,28,22.80
2014,07,14,10,29,22.80
2014,07,14,10,30,22.80
2014,07,14,10,31,22.70
2014,07,14,10,32,22.70
2014,07,14,10,33,22.70
2014,07,14,10,34,22.50
2014,07,14,10,35,22.30
2014,07,14,10,36,22.30
2014,07,14,10,37,22.20
2014,07,14,10,38,22.20
2014,07,14,10,39,22.20
2014,07,14,10,40,22.20
2014,07,14,10,41,22.30
2014,07,14,10,42,22.20
2014,07,14,10,43,22.10
2014,07,14,10,44,22.10
2014,07,14,10,45,22.10
2014,07,14,10,46,22.10
2014,07,14,10,47,22.10
2014,07,14,10,48,22.20
2014,07,14,10,49,22.20
2014,07,14,10,50,22.20
2014,07,14,10,51,22.30
2014,07,14,10,52,22.40
2014,07,14,10,53,22.50
2014,07,14,10,54,22.70
2014,07,14,10,55,22.80
2014,07,14,10,56,22.90
2014,07,14,10,57,22.90
2014,07,14,10,58,23.00
2014,07,14,10,59,23.00
2014,07,14,11,00,23.10
2014,07,14,11,01,23.20
2014,07,14,11,02,23.20
2014,07,14,11,03,23.30
2014,07,14,11,04,23.40
2014,07,14,11,05,23.50
2014,07,14,11,06,23.60
2014,07,14,11,07,23.70
2014,07,14,11,08,23.80
2014,07,14,11,09,23.90
2014,07,14,11,10,23.70
2014,07,14,11,11,23.50
2014,07,14,11,12,23.50
2014,07,14,11,13,23.40
2014,07,14,11,14,23.50
2014,07,14,11,15,23.50
2014,07,14,11,16,23.60
2014,07,14,11,17,23.60
2014,07,14,11,18,23.60
2014,07,14,11,19,23.60
2014,07,14,11,20,23.70
2014,07,14,11,21,23.70
2014,07,14,11,22,23.80
2014,07,14,11,23,23.80
2014,07,14,11,24,23.80
2014,07,14,11,25,23.90
2014,07,14,11,26,23.90
2014,07,14,11,27,24.00
2014,07,14,11,28,24.10
2014,07,14,11,29,24.10
2014,07,14,11,30,24.20
2014,07,14,11,31,24.20
2014,07,14,11,32,24.20
2014,07,14,11,33,24.30
2014,07,14,11,34,24.40
2014,07,14,11,35,24.40
2014,07,14,11,36,24.40
2014,07,14,11,37,24.40
2014,07,14,11,38,24.40
2014,07,14,11,39,24.40
2014,07,14,11,40,24.40
2014,07,14,11,41,24.40
2014,07,14,11,42,24.40
2014,07,14,11,43,24.30
2014,07,14,11,44,24.20
2014,07,14,11,45,24.20
2014,07,14,11,46,24.20
2014,07,14,11,47,24.20
2014,07,14,11,48,24.20
2014,07,14,11,49,24.20
2014,07,14,11,50,24.30
2014,07,14,11,51,24.30
2014,07,14,11,52,24.40
2014,07,14,11,53,24.50
2014,07,14,11,54,24.50
2014,07,14,11,55,24.60
2014,07,14,11,56,24.60
2014,07,14,11,57,24.60
2014,07,14,11,58,24.50
2014,07,14,11,59,24.40
2014,07,14,12,00,24.40
2014,07,14,12,01,24.40
2014,07,14,12,02,24.40
2014,07,14,12,03,24.40
2014,07,14,12,04,24.40
2014,07,14,12,05,24.30
2014,07,14,12,06,24.30
2014,07,14,12,07,24.20
2014,07,14,12,08,24.10
2014,07,14,12,09,24.10
2014,07,14,12,10,24.10
2014,07,14,12,11,24.10
2014,07,14,12,12,24.20
2014,07,14,12,13,24.30
2014,07,14,12,14,24.30
2014,07,14,12,15,24.40
2014,07,14,12,16,24.40
2014,07,14,12,17,24.40
2014,07,14,12,18,24.30
2014,07,14,12,19,24.30
2014,07,14,12,20,24.30
2014,07,14,12,21,24.30
2014,07,14,12,22,24.30
2014,07,14,12,23,24.30
2014,07,14,12,24,24.30
2014,07,14,12,25,24.30
2014,07,14,12,26,24.20
2014,07,14,12,27,24.20
2014,07,14,12,28,24.20
2014,07,14,12,29,24.20
2014,07,14,12,30,24.20
2014,07,14,12,31,24.20
2014,07,14,12,32,24.20
2014,07,14,12,33,24.30
2014,07,14,12,34,24.30
2014,07,14,12,35,24.30
2014,07,14,12,36,24.40
2014,07,14,12,37,24.50
2014,07,14,12,38,24.60
2014,07,14,12,39,24.70
2014,07,14,12,40,24.80
2014,07,14,12,41,24.90
2014,07,14,12,42,25.00
2014,07,14,12,43,25.00
2014,07,14,12,44,25.00
2014,07,14,12,45,24.90
2014,07,14,12,46,24.90
2014,07,14,12,47,24.90
2014,07,14,12,48,25.00
2014,07,14,12,49,25.00
2014,07,14,12,50,25.10
2014,07,14,12,51,25.10
2014,07,14,12,52,25.20
2014,07,14,12,53,25.20
2014,07,14,12,54,25.10
2014,07,14,12,55,25.10
2014,07,14,12,56,25.00
2014,07,14,12,57,25.00
2014,07,14,12,58,24.90
2014,07,14,12,59,24.80
2014,07,14,13,00,24.80
2014,07,14,13,01,24.80
2014,07,14,13,02,24.80
2014,07,14,13,03,24.80
2014,07,14,13,04,24.90
2014,07,14,13,05,24.90
2014,07,14,13,06,24.90
2014,07,14,13,07,24.80
2014,07,14,13,08,24.80
2014,07,14,13,09,24.80
2014,07,14,13,10,24.90
2014,07,14,13,11,25.00
2014,07,14,13,12,25.00
2014,07,14,13,13,25.00
2014,07,14,13,14,24.90
2014,07,14,13,15,24.90
2014,07,14,13,16,24.90
2014,07,14,13,17,25.00
2014,07,14,13,18,25.00
2014,07,14,13,19,25.20
2014,07,14,13,20,25.20
2014,07,14,13,21,25.20
2014,07,14,13,22,25.20
2014,07,14,13,23,25.10
2014,07,14,13,24,25.10
2014,07,14,13,25,25.00
2014,07,14,13,26,25.00
2014,07,14,13,27,25.10
2014,07,14,13,28,25.10
2014,07,14,13,29,25.10
2014,07,14,13,30,25.10
2014,07,14,13,31,25.00
2014,07,14,13,32,24.90
2014,07,14,13,33,24.80
2014,07,14,13,34,24.80
2014,07,14,13,35,24.80
2014,07,14,13,36,24.80
2014,07,14,13,37,24.70
2014,07,14,13,38,24.80
2014,07,14,13,39,24.80
2014,07,14,13,40,24.70
2014,07,14,13,41,24.70
2014,07,14,13,42,24.70
2014,07,14,13,43,24.70
2014,07,14,13,44,24.80
2014,07,14,13,45,24.80
2014,07,14,13,46,24.90
2014,07,14,13,47,24.90
2014,07,14,13,48,24.90
2014,07,14,13,49,24.90
2014,07,14,13,50,25.00
2014,07,14,13,51,25.00
2014,07,14,13,52,25.10
2014,07,14,13,53,25.10
2014,07,14,13,54,25.10
2014,07,14,13,55,25.10
2014,07,14,13,56,25.10
2014,07,14,13,57,25.20
2014,07,14,13,58,25.20
2014,07,14,13,59,25.30
2014,07,14,14,00,25.30
2014,07,14,14,01,25.30
2014,07,14,14,02,25.30
2014,07,14,14,03,25.40
2014,07,14,14,04,25.50
2014,07,14,14,05,25.50
2014,07,14,14,06,25.60
2014,07,14,14,07,25.80
2014,07,14,14,08,25.80
2014,07,14,14,09,25.90
2014,07,14,14,10,25.90
2014,07,14,14,11,25.90
2014,07,14,14,12,25.90
2014,07,14,14,13,25.80
2014,07,14,14,14,25.80
2014,07,14,14,15,25.70
2014,07,14,14,16,25.60
2014,07,14,14,17,25.50
2014,07,14,14,18,25.40
2014,07,14,14,19,25.30
2014,07,14,14,20,25.20
2014,07,14,14,21,25.20
2014,07,14,14,22,25.20
2014,07,14,14,23,25.10
2014,07,14,14,24,25.10
2014,07,14,14,25,25.10
2014,07,14,14,26,25.00
2014,07,14,14,27,25.00
2014,07,14,14,28,25.00
2014,07,14,14,29,25.10
2014,07,14,14,30,25.10
2014,07,14,14,31,25.10
2014,07,14,14,32,25.10
2014,07,14,14,33,25.20
2014,07,14,14,34,25.10
2014,07,14,14,35,25.20
2014,07,14,14,36,25.30
2014,07,14,14,37,25.40
2014,07,14,14,38,25.50
2014,07,14,14,39,25.60
2014,07,14,14,40,25.70
2014,07,14,14,41,25.70
2014,07,14,14,42,25.70
2014,07,14,14,43,25.70
2014,07,14,14,44,25.70
2014,07,14,14,45,25.70
2014,07,14,14,46,25.70
2014,07,14,14,47,25.70
2014,07,14,14,48,25.70
2014,07,14,14,49,25.80
2014,07,14,14,50,25.90
2014,07,14,14,51,25.90
2014,07,14,14,52,25.90
2014,07,14,14,53,26.00
2014,07,14,14,54,26.00
2014,07,14,14,55,26.10
2014,07,14,14,56,26.20
2014,07,14,14,57,26.20
2014,07,14,14,58,26.30
2014,07,14,14,59,26.30
2014,07,14,15,00,26.40
2014,07,14,15,01,26.50
2014,07,14,15,02,26.50
2014,07,14,15,03,26.50
2014,07,14,15,04,26.60
2014,07,14,15,05,26.50
2014,07,14,15,06,26.50
2014,07,14,15,07,26.60
2014,07,14,15,08,26.60
2014,07,14,15,09,26.60
2014,07,14,15,10,26.60
2014,07,14,15,11,26.60
2014,07,14,15,12,26.60
2014,07,14,15,13,26.60
2014,07,14,15,14,26.50
2014,07,14,15,15,26.50
2014,07,14,15,16,26.50
2014,07,14,15,17,26.60
2014,07,14,15,18,26.70
2014,07,14,15,19,26.70
2014,07,14,15,20,26.70
2014,07,14,15,21,26.80
2014,07,14,15,22,26.90
2014,07,14,15,23,27.00
2014,07,14,15,24,27.20
2014,07,14,15,25,27.40
2014,07,14,15,26,27.50
2014,07,14,15,27,27.60
2014,07,14,15,28,27.80
2014,07,14,15,29,27.80
2014,07,14,15,30,27.90
2014,07,14,15,31,28.00
2014,07,14,15,32,28.20
2014,07,14,15,33,28.20
2014,07,14,15,34,28.20
2014,07,14,15,35,28.20
2014,07,14,15,36,28.20
2014,07,14,15,37,28.20
2014,07,14,15,38,28.30
2014,07,14,15,39,28.40
2014,07,14,15,40,28.40
2014,07,14,15,41,28.40
2014,07,14,15,42,28.30
2014,07,14,15,43,28.30
2014,07,14,15,44,28.30
2014,07,14,15,45,28.20
2014,07,14,15,46,28.20
2014,07,14,15,47,28.10
2014,07,14,15,48,28.10
2014,07,14,15,49,28.20
2014,07,14,15,50,28.20
2014,07,14,15,51,28.10
2014,07,14,15,52,28.10
2014,07,14,15,53,28.10
2014,07,14,15,54,28.20
2014,07,14,15,55,28.20
2014,07,14,15,56,28.20
2014,07,14,15,57,28.30
2014,07,14,15,58,28.30
2014,07,14,15,59,28.40
2014,07,14,16,00,28.40
2014,07,14,16,01,28.50
2014,07,14,16,02,28.60
2014,07,14,16,03,28.70
2014,07,14,16,04,28.80
2014,07,14,16,05,28.70
2014,07,14,16,06,28.70
2014,07,14,16,07,28.60
2014,07,14,16,08,28.60
2014,07,14,16,09,28.50
2014,07,14,16,10,28.50
2014,07,14,16,11,28.50
2014,07,14,16,12,28.50
2014,07,14,16,13,28.50
2014,07,14,16,14,28.40
2014,07,14,16,15,28.40
2014,07,14,16,16,28.40
2014,07,14,16,17,28.40
2014,07,14,16,18,28.40
2014,07,14,16,19,28.40
2014,07,14,16,20,28.50
2014,07,14,16,21,28.50
2014,07,14,16,22,28.50
2014,07,14,16,23,28.60
2014,07,14,16,24,28.70
2014,07,14,16,25,28.80
2014,07,14,16,26,28.80
2014,07,14,16,27,28.90
2014,07,14,16,28,28.90
2014,07,14,16,29,28.90
2014,07,14,16,30,28.90
2014,07,14,16,31,28.80
2014,07,14,16,32,28.80
2014,07,14,16,33,28.80
2014,07,14,16,34,28.80
2014,07,14,16,35,28.80
2014,07,14,16,36,28.90
2014,07,14,16,37,29.00
2014,07,14,16,38,29.10
2014,07,14,16,39,29.10
2014,07,14,16,40,29.20
2014,07,14,16,41,29.10
2014,07,14,16,42,29.10
2014,07,14,16,43,29.10
2014,07,14,16,44,29.10
2014,07,14,16,45,29.10
2014,07,14,16,46,29.20
2014,07,14,16,47,29.20
2014,07,14,16,48,29.20
2014,07,14,16,49,29.20
2014,07,14,16,50,29.20
2014,07,14,16,51,29.20
2014,07,14,16,52,29.20
2014,07,14,16,53,29.20
2014,07,14,16,54,29.20
2014,07,14,16,55,29.20
2014,07,14,16,56,29.10
2014,07,14,16,57,29.10
2014,07,14,16,58,29.00
2014,07,14,16,59,28.90
2014,07,14,17,00,28.90
2014,07,14,17,01,28.80
2014,07,14,17,02,28.80
2014,07,14,17,03,28.80
2014,07,14,17,04,28.70
2014,07,14,17,05,28.60
2014,07,14,17,06,28.60
2014,07,14,17,07,28.60
2014,07,14,17,08,28.50
2014,07,14,17,09,28.40
2014,07,14,17,10,28.30
2014,07,14,17,11,28.30
2014,07,14,17,12,28.20
2014,07,14,17,13,28.10
2014,07,14,17,14,28.00
2014,07,14,17,15,28.00
2014,07,14,17,16,27.90
2014,07,14,17,17,27.90
2014,07,14,17,18,27.90
2014,07,14,17,19,27.90